Regional Weather Roundup
Issued by NWS Glasgow, MT

Home | Current Version | Previous Version | Text Only | Print | Product List | Glossary On
Versions: 1 2 3 4 5 6 7 8 9 10 11 12 13 14 15 16 17 18 19 20 21 22 23 24 25 26 27 28 29 30 31 32 33 34 35 36 37 38 39 40 41 42 43 44 45 46 47 48 49 50
000
ASUS45 KGGW 110815
RWRGGW
HOURLY WEATHER ROUNDUP FOR NORTHEAST MONTANA
NATIONAL WEATHER SERVICE GLASGOW MONTANA
200 AM MDT FRI JUL 11 2014

NOTE: "FAIR" INDICATES FEW OR NO CLOUDS BELOW 12,000 FEET WITH NO
SIGNIFICANT WEATHER AND/OR OBSTRUCTIONS TO VISISBILITY.

NORTHEAST MONTANA


CITY           SKY/WX    TMP DP  RH WIND       PRES   REMARKS
GLASGOW        PTCLDY    66  57  72 E10       29.91S
PLENTYWOOD       N/A     61  57  87 NE6         N/A
WOLF POINT     PTCLDY    60  55  83 E5        29.91S
JORDAN           N/A     69  58  67 NE6       29.92R
WINNETT          N/A     66  47  50 NE2         N/A
SIDNEY         CLEAR     63  57  82 NW7       29.92R
GLENDIVE       CLEAR     66  57  72 NE13      29.92S
MALTA            N/A     66  64  93 NE6         N/A
SCOBEY           N/A     56  48  74 CALM      29.94F

FORT PECK REPORTS


CITY           SKY/WX    TMP DP  RH WIND       PRES   REMARKS
FORT PECK        N/A     66  54  65 NE16        N/A
THE PINES        N/A     67  56  67 E8          N/A

SOUTHEAST MONTANA


CITY           SKY/WX    TMP DP  RH WIND       PRES   REMARKS
BILLINGS       CLEAR     71  51  49 N3        29.91R
MILES CITY     CLEAR     68  62  81 NE7       29.90R
BAKER          CLEAR     64  60  87 E5        29.92F
LIVINGSTON     CLEAR     57  43  59 W5        29.99R

CENTRAL MONTANA


CITY           SKY/WX    TMP DP  RH WIND       PRES   REMARKS
HAVRE          LGT RAIN  65  59  81 NE17G31   30.01S
LEWISTOWN      NOT AVBL
GREAT FALLS    CLEAR     66  49  54 NW8       29.98R
CUT BANK       MOCLDY    59  50  72 N14       30.12R
HELENA         CLEAR     67  36  31 CALM      29.98R
BUTTE          CLEAR     57  38  48 SE6       30.10R
BOZEMAN        CLEAR     54  47  77 SE10      30.01R

WESTERN MONTANA


CITY           SKY/WX    TMP DP  RH WIND       PRES   REMARKS
MISSOULA       CLEAR     63  38  39 CALM      29.97R
KALISPELL      NOT AVBL

NORTH DAKOTA


CITY           SKY/WX    TMP DP  RH WIND       PRES   REMARKS
WILLISTON      CLEAR     63  59  87 N9        29.89S
DICKINSON      CLEAR     62  61  96 W9        29.88R FOG
MINOT          CLEAR     68  64  87 S3        29.82S
BISMARCK       CLEAR     66  64  93 NW3       29.83S

SOUTHERN SASKATCHEWAN


CITY           SKY/WX    TMP DP  RH WIND       PRES   REMARKS
REGINA         MOCLDY    57  55  94 W10       29.92R
ESTEVAN        CLEAR     57  57 100 N6        29.90S
SWIFT CURRENT  MOCLDY    54  50  87 W6        30.03R




USA.gov is the U.S. government's official web portal to all federal, state and local government web resources and services.